Year,Month,Day,Hour,Minute,Value (Times are PST for temperature in C)
2020,12,04,00,00,7.60
2020,12,04,00,01,7.60
2020,12,04,00,02,7.60
2020,12,04,00,03,7.50
2020,12,04,00,04,7.50
2020,12,04,00,05,7.50
2020,12,04,00,06,7.50
2020,12,04,00,07,7.40
2020,12,04,00,08,7.40
2020,12,04,00,09,7.40
2020,12,04,00,10,7.40
2020,12,04,00,11,7.40
2020,12,04,00,12,7.40
2020,12,04,00,13,7.30
2020,12,04,00,14,7.30
2020,12,04,00,15,7.30
2020,12,04,00,16,7.20
2020,12,04,00,17,7.20
2020,12,04,00,18,7.20
2020,12,04,00,19,7.20
2020,12,04,00,20,7.20
2020,12,04,00,21,7.10
2020,12,04,00,22,7.10
2020,12,04,00,23,7.10
2020,12,04,00,24,7.10
2020,12,04,00,25,7.10
2020,12,04,00,26,7.10
2020,12,04,00,27,7.00
2020,12,04,00,28,7.00
2020,12,04,00,29,7.00
2020,12,04,00,30,6.90
2020,12,04,00,31,6.90
2020,12,04,00,32,6.90
2020,12,04,00,33,6.90
2020,12,04,00,34,6.90
2020,12,04,00,35,6.90
2020,12,04,00,36,6.80
2020,12,04,00,37,6.80
2020,12,04,00,38,6.80
2020,12,04,00,39,6.80
2020,12,04,00,40,6.70
2020,12,04,00,41,6.70
2020,12,04,00,42,6.70
2020,12,04,00,43,6.60
2020,12,04,00,44,6.60
2020,12,04,00,45,6.60
2020,12,04,00,46,6.50
2020,12,04,00,47,6.50
2020,12,04,00,48,6.50
2020,12,04,00,49,6.40
2020,12,04,00,50,6.40
2020,12,04,00,51,6.40
2020,12,04,00,52,6.40
2020,12,04,00,53,6.40
2020,12,04,00,54,6.40
2020,12,04,00,55,6.40
2020,12,04,00,56,6.30
2020,12,04,00,57,6.30
2020,12,04,00,58,6.30
2020,12,04,00,59,6.20
2020,12,04,01,00,6.20
2020,12,04,01,01,6.20
2020,12,04,01,02,6.20
2020,12,04,01,03,6.20
2020,12,04,01,04,6.20
2020,12,04,01,05,6.10
2020,12,04,01,06,6.10
2020,12,04,01,07,6.10
2020,12,04,01,08,6.10
2020,12,04,01,09,6.10
2020,12,04,01,10,6.10
2020,12,04,01,11,6.10
2020,12,04,01,12,6.00
2020,12,04,01,13,6.00
2020,12,04,01,14,5.90
2020,12,04,01,15,5.90
2020,12,04,01,16,5.80
2020,12,04,01,17,5.80
2020,12,04,01,18,5.80
2020,12,04,01,19,5.80
2020,12,04,01,20,5.70
2020,12,04,01,21,5.70
2020,12,04,01,22,5.70
2020,12,04,01,23,5.70
2020,12,04,01,24,5.70
2020,12,04,01,25,5.70
2020,12,04,01,26,5.70
2020,12,04,01,27,5.70
2020,12,04,01,28,5.70
2020,12,04,01,29,5.70
2020,12,04,01,30,5.70
2020,12,04,01,31,5.70
2020,12,04,01,32,5.70
2020,12,04,01,33,5.70
2020,12,04,01,34,5.60
2020,12,04,01,35,5.60
2020,12,04,01,36,5.50
2020,12,04,01,37,5.50
2020,12,04,01,38,5.40
2020,12,04,01,39,5.40
2020,12,04,01,40,5.40
2020,12,04,01,41,5.30
2020,12,04,01,42,5.30
2020,12,04,01,43,5.30
2020,12,04,01,44,5.30
2020,12,04,01,45,5.30
2020,12,04,01,46,5.30
2020,12,04,01,47,5.30
2020,12,04,01,48,5.30
2020,12,04,01,49,5.30
2020,12,04,01,50,5.30
2020,12,04,01,51,5.30
2020,12,04,01,52,5.30
2020,12,04,01,53,5.30
2020,12,04,01,54,5.30
2020,12,04,01,55,5.30
2020,12,04,01,56,5.30
2020,12,04,01,57,5.30
2020,12,04,01,58,5.30
2020,12,04,01,59,5.30
2020,12,04,02,00,5.30
2020,12,04,02,01,5.30
2020,12,04,02,02,5.30
2020,12,04,02,03,5.30
2020,12,04,02,04,5.30
2020,12,04,02,05,5.30
2020,12,04,02,06,5.30
2020,12,04,02,07,5.30
2020,12,04,02,08,5.20
2020,12,04,02,09,5.20
2020,12,04,02,10,5.20
2020,12,04,02,11,5.20
2020,12,04,02,12,5.20
2020,12,04,02,13,5.20
2020,12,04,02,14,5.20
2020,12,04,02,15,5.20
2020,12,04,02,16,5.10
2020,12,04,02,17,5.10
2020,12,04,02,18,5.10
2020,12,04,02,19,5.10
2020,12,04,02,20,5.20
2020,12,04,02,21,5.20
2020,12,04,02,22,5.20
2020,12,04,02,23,5.20
2020,12,04,02,24,5.20
2020,12,04,02,25,5.20
2020,12,04,02,26,5.20
2020,12,04,02,27,5.20
2020,12,04,02,28,5.20
2020,12,04,02,29,5.20
2020,12,04,02,30,5.20
2020,12,04,02,31,5.10
2020,12,04,02,32,5.10
2020,12,04,02,33,5.10
2020,12,04,02,34,5.10
2020,12,04,02,35,5.10
2020,12,04,02,36,5.10
2020,12,04,02,37,5.10
2020,12,04,02,38,5.10
2020,12,04,02,39,5.10
2020,12,04,02,40,5.10
2020,12,04,02,41,5.10
2020,12,04,02,42,5.10
2020,12,04,02,43,5.10
2020,12,04,02,44,5.10
2020,12,04,02,45,5.20
2020,12,04,02,46,5.20
2020,12,04,02,47,5.20
2020,12,04,02,48,5.20
2020,12,04,02,49,5.20
2020,12,04,02,50,5.20
2020,12,04,02,51,5.10
2020,12,04,02,52,5.10
2020,12,04,02,53,5.10
2020,12,04,02,54,5.10
2020,12,04,02,55,5.10
2020,12,04,02,56,5.10
2020,12,04,02,57,5.00
2020,12,04,02,58,5.00
2020,12,04,02,59,5.00
2020,12,04,03,00,5.00
2020,12,04,03,01,4.90
2020,12,04,03,02,4.90
2020,12,04,03,03,4.90
2020,12,04,03,04,4.90
2020,12,04,03,05,4.90
2020,12,04,03,06,4.90
2020,12,04,03,07,4.90
2020,12,04,03,08,4.90
2020,12,04,03,09,4.90
2020,12,04,03,10,4.90
2020,12,04,03,11,4.90
2020,12,04,03,12,4.80
2020,12,04,03,13,4.80
2020,12,04,03,14,4.70
2020,12,04,03,15,4.70
2020,12,04,03,16,4.60
2020,12,04,03,17,4.60
2020,12,04,03,18,4.60
2020,12,04,03,19,4.60
2020,12,04,03,20,4.50
2020,12,04,03,21,4.50
2020,12,04,03,22,4.50
2020,12,04,03,23,4.50
2020,12,04,03,24,4.50
2020,12,04,03,25,4.50
2020,12,04,03,26,4.50
2020,12,04,03,27,4.50
2020,12,04,03,28,4.50
2020,12,04,03,29,4.50
2020,12,04,03,30,4.50
2020,12,04,03,31,4.50
2020,12,04,03,32,4.40
2020,12,04,03,33,4.40
2020,12,04,03,34,4.50
2020,12,04,03,35,4.50
2020,12,04,03,36,4.60
2020,12,04,03,37,4.60
2020,12,04,03,38,4.60
2020,12,04,03,39,4.60
2020,12,04,03,40,4.70
2020,12,04,03,41,4.70
2020,12,04,03,42,4.70
2020,12,04,03,43,4.70
2020,12,04,03,44,4.70
2020,12,04,03,45,4.70
2020,12,04,03,46,4.70
2020,12,04,03,47,4.70
2020,12,04,03,48,4.70
2020,12,04,03,49,4.70
2020,12,04,03,50,4.70
2020,12,04,03,51,4.70
2020,12,04,03,52,4.80
2020,12,04,03,53,4.80
2020,12,04,03,54,4.80
2020,12,04,03,55,4.80
2020,12,04,03,56,4.80
2020,12,04,03,57,4.80
2020,12,04,03,58,4.80
2020,12,04,03,59,4.80
2020,12,04,04,00,4.70
2020,12,04,04,01,4.70
2020,12,04,04,02,4.60
2020,12,04,04,03,4.50
2020,12,04,04,04,4.50
2020,12,04,04,05,4.40
2020,12,04,04,06,4.40
2020,12,04,04,07,4.40
2020,12,04,04,08,4.40
2020,12,04,04,09,4.40
2020,12,04,04,10,4.30
2020,12,04,04,11,4.30
2020,12,04,04,12,4.30
2020,12,04,04,13,4.30
2020,12,04,04,14,4.40
2020,12,04,04,15,4.40
2020,12,04,04,16,4.50
2020,12,04,04,17,4.50
2020,12,04,04,18,4.50
2020,12,04,04,19,4.60
2020,12,04,04,20,4.60
2020,12,04,04,21,4.60
2020,12,04,04,22,4.60
2020,12,04,04,23,4.60
2020,12,04,04,24,4.60
2020,12,04,04,25,4.60
2020,12,04,04,26,4.60
2020,12,04,04,27,4.60
2020,12,04,04,28,4.60
2020,12,04,04,29,4.60
2020,12,04,04,30,4.50
2020,12,04,04,31,4.50
2020,12,04,04,32,4.50
2020,12,04,04,33,4.50
2020,12,04,04,34,4.40
2020,12,04,04,35,4.40
2020,12,04,04,36,4.40
2020,12,04,04,37,4.30
2020,12,04,04,38,4.30
2020,12,04,04,39,4.30
2020,12,04,04,40,4.30
2020,12,04,04,41,4.30
2020,12,04,04,42,4.30
2020,12,04,04,43,4.30
2020,12,04,04,44,4.30
2020,12,04,04,45,4.30
2020,12,04,04,46,4.30
2020,12,04,04,47,4.30
2020,12,04,04,48,4.20
2020,12,04,04,49,4.20
2020,12,04,04,50,4.20
2020,12,04,04,51,4.20
2020,12,04,04,52,4.20
2020,12,04,04,53,4.20
2020,12,04,04,54,4.10
2020,12,04,04,55,4.10
2020,12,04,04,56,4.10
2020,12,04,04,57,4.10
2020,12,04,04,58,4.10
2020,12,04,04,59,4.00
2020,12,04,05,00,4.00
2020,12,04,05,01,4.00
2020,12,04,05,02,3.90
2020,12,04,05,03,3.90
2020,12,04,05,04,3.90
2020,12,04,05,05,3.90
2020,12,04,05,06,3.90
2020,12,04,05,07,3.90
2020,12,04,05,08,3.80
2020,12,04,05,09,3.80
2020,12,04,05,10,3.80
2020,12,04,05,11,3.80
2020,12,04,05,12,3.80
2020,12,04,05,13,3.80
2020,12,04,05,14,3.70
2020,12,04,05,15,3.70
2020,12,04,05,16,3.70
2020,12,04,05,17,3.60
2020,12,04,05,18,3.60
2020,12,04,05,19,3.50
2020,12,04,05,20,3.40
2020,12,04,05,21,3.40
2020,12,04,05,22,3.30
2020,12,04,05,23,3.30
2020,12,04,05,24,3.20
2020,12,04,05,25,3.20
2020,12,04,05,26,3.10
2020,12,04,05,27,3.10
2020,12,04,05,28,3.10
2020,12,04,05,29,3.10
2020,12,04,05,30,3.10
2020,12,04,05,31,3.10
2020,12,04,05,32,3.10
2020,12,04,05,33,3.10
2020,12,04,05,34,3.10
2020,12,04,05,35,3.10
2020,12,04,05,36,3.10
2020,12,04,05,37,3.10
2020,12,04,05,38,3.10
2020,12,04,05,39,3.10
2020,12,04,05,40,3.10
2020,12,04,05,41,3.10
2020,12,04,05,42,3.10
2020,12,04,05,43,3.10
2020,12,04,05,44,3.00
2020,12,04,05,45,3.00
2020,12,04,05,46,3.00
2020,12,04,05,47,3.00
2020,12,04,05,48,3.10
2020,12,04,05,49,3.10
2020,12,04,05,50,3.20
2020,12,04,05,51,3.20
2020,12,04,05,52,3.20
2020,12,04,05,53,3.20
2020,12,04,05,54,3.20
2020,12,04,05,55,3.20
2020,12,04,05,56,3.20
2020,12,04,05,57,3.10
2020,12,04,05,58,3.10
2020,12,04,05,59,3.00
2020,12,04,06,00,3.00
2020,12,04,06,01,2.90
2020,12,04,06,02,2.90
2020,12,04,06,03,2.80
2020,12,04,06,04,2.80
2020,12,04,06,05,2.80
2020,12,04,06,06,2.80
2020,12,04,06,07,2.80
2020,12,04,06,08,2.80
2020,12,04,06,09,2.80
2020,12,04,06,10,2.80
2020,12,04,06,11,2.70
2020,12,04,06,12,2.70
2020,12,04,06,13,2.70
2020,12,04,06,14,2.70
2020,12,04,06,15,2.70
2020,12,04,06,16,2.60
2020,12,04,06,17,2.60
2020,12,04,06,18,2.50
2020,12,04,06,19,2.50
2020,12,04,06,20,2.50
2020,12,04,06,21,2.40
2020,12,04,06,22,2.40
2020,12,04,06,23,2.40
2020,12,04,06,24,2.40
2020,12,04,06,25,2.50
2020,12,04,06,26,2.50
2020,12,04,06,27,2.50
2020,12,04,06,28,2.50
2020,12,04,06,29,2.60
2020,12,04,06,30,2.60
2020,12,04,06,31,2.60
2020,12,04,06,32,2.60
2020,12,04,06,33,2.60
2020,12,04,06,34,2.60
2020,12,04,06,35,2.60
2020,12,04,06,36,2.60
2020,12,04,06,37,2.60
2020,12,04,06,38,2.60
2020,12,04,06,39,2.60
2020,12,04,06,40,2.60
2020,12,04,06,41,2.70
2020,12,04,06,42,2.60
2020,12,04,06,43,2.60
2020,12,04,06,44,2.60
2020,12,04,06,45,2.60
2020,12,04,06,46,2.60
2020,12,04,06,47,2.60
2020,12,04,06,48,2.60
2020,12,04,06,49,2.50
2020,12,04,06,50,2.50
2020,12,04,06,51,2.50
2020,12,04,06,52,2.50
2020,12,04,06,53,2.50
2020,12,04,06,54,2.40
2020,12,04,06,55,2.40
2020,12,04,06,56,2.40
2020,12,04,06,57,2.50
2020,12,04,06,58,2.50
2020,12,04,06,59,2.50
2020,12,04,07,00,2.50
2020,12,04,07,01,2.40
2020,12,04,07,02,2.40
2020,12,04,07,03,2.40
2020,12,04,07,04,2.40
2020,12,04,07,05,2.40
2020,12,04,07,06,2.40
2020,12,04,07,07,2.40
2020,12,04,07,08,2.30
2020,12,04,07,09,2.30
2020,12,04,07,10,2.20
2020,12,04,07,11,2.20
2020,12,04,07,12,2.20
2020,12,04,07,13,2.20
2020,12,04,07,14,2.20
2020,12,04,07,15,2.20
2020,12,04,07,16,2.20
2020,12,04,07,17,2.20
2020,12,04,07,18,2.20
2020,12,04,07,19,2.20
2020,12,04,07,20,2.20
2020,12,04,07,21,2.20
2020,12,04,07,22,2.20
2020,12,04,07,23,2.20
2020,12,04,07,24,2.20
2020,12,04,07,25,2.30
2020,12,04,07,26,2.30
2020,12,04,07,27,2.30
2020,12,04,07,28,2.30
2020,12,04,07,29,2.30
2020,12,04,07,30,2.30
2020,12,04,07,31,2.30
2020,12,04,07,32,2.30
2020,12,04,07,33,2.30
2020,12,04,07,34,2.30
2020,12,04,07,35,2.30
2020,12,04,07,36,2.30
2020,12,04,07,37,2.20
2020,12,04,07,38,2.20
2020,12,04,07,39,2.20
2020,12,04,07,40,2.20
2020,12,04,07,41,2.20
2020,12,04,07,42,2.20
2020,12,04,07,43,2.20
2020,12,04,07,44,2.20
2020,12,04,07,45,2.20
2020,12,04,07,46,2.20
2020,12,04,07,47,2.30
2020,12,04,07,48,2.30
2020,12,04,07,49,2.30
2020,12,04,07,50,2.30
2020,12,04,07,51,2.30
2020,12,04,07,52,2.30
2020,12,04,07,53,2.30
2020,12,04,07,54,2.30
2020,12,04,07,55,2.30
2020,12,04,07,56,2.30
2020,12,04,07,57,2.30
2020,12,04,07,58,2.30
2020,12,04,07,59,2.30
2020,12,04,08,00,2.30
2020,12,04,08,01,2.30
2020,12,04,08,02,2.30
2020,12,04,08,03,2.30
2020,12,04,08,04,2.30
2020,12,04,08,05,2.30
2020,12,04,08,06,2.30
2020,12,04,08,07,2.30
2020,12,04,08,08,2.30
2020,12,04,08,09,2.20
2020,12,04,08,10,2.20
2020,12,04,08,11,2.20
2020,12,04,08,12,2.20
2020,12,04,08,13,2.30
2020,12,04,08,14,2.30
2020,12,04,08,15,2.30
2020,12,04,08,16,2.30
2020,12,04,08,17,2.30
2020,12,04,08,18,2.40
2020,12,04,08,19,2.40
2020,12,04,08,20,2.40
2020,12,04,08,21,2.40
2020,12,04,08,22,2.40
2020,12,04,08,23,2.40
2020,12,04,08,24,2.40
2020,12,04,08,25,2.40
2020,12,04,08,26,2.40
2020,12,04,08,27,2.40
2020,12,04,08,28,2.40
2020,12,04,08,29,2.40
2020,12,04,08,30,2.40
2020,12,04,08,31,2.50
2020,12,04,08,32,2.50
2020,12,04,08,33,2.50
2020,12,04,08,34,2.50
2020,12,04,08,35,2.50
2020,12,04,08,36,2.50
2020,12,04,08,37,2.60
2020,12,04,08,38,2.60
2020,12,04,08,39,2.60
2020,12,04,08,40,2.60
2020,12,04,08,41,2.70
2020,12,04,08,42,2.70
2020,12,04,08,43,2.70
2020,12,04,08,44,2.70
2020,12,04,08,45,2.70
2020,12,04,08,46,2.70
2020,12,04,08,47,2.80
2020,12,04,08,48,2.80
2020,12,04,08,49,2.80
2020,12,04,08,50,2.90
2020,12,04,08,51,2.90
2020,12,04,08,52,2.90
2020,12,04,08,53,3.00
2020,12,04,08,54,3.00
2020,12,04,08,55,3.10
2020,12,04,08,56,3.10
2020,12,04,08,57,3.10
2020,12,04,08,58,3.20
2020,12,04,08,59,3.20
2020,12,04,09,00,3.20
2020,12,04,09,01,3.30
2020,12,04,09,02,3.30
2020,12,04,09,03,3.30
2020,12,04,09,04,3.30
2020,12,04,09,05,3.40
2020,12,04,09,06,3.40
2020,12,04,09,07,3.40
2020,12,04,09,08,3.50
2020,12,04,09,09,3.50
2020,12,04,09,10,3.60
2020,12,04,09,11,3.60
2020,12,04,09,12,3.60
2020,12,04,09,13,3.60
2020,12,04,09,14,3.70
2020,12,04,09,15,3.70
2020,12,04,09,16,3.70
2020,12,04,09,17,3.80
2020,12,04,09,18,3.80
2020,12,04,09,19,3.80
2020,12,04,09,20,3.90
2020,12,04,09,21,4.00
2020,12,04,09,22,4.00
2020,12,04,09,23,4.10
2020,12,04,09,24,4.10
2020,12,04,09,25,4.20
2020,12,04,09,26,4.30
2020,12,04,09,27,4.40
2020,12,04,09,28,4.50
2020,12,04,09,29,4.70
2020,12,04,09,30,4.80
2020,12,04,09,31,4.90
2020,12,04,09,32,5.00
2020,12,04,09,33,5.10
2020,12,04,09,34,5.20
2020,12,04,09,35,5.30
2020,12,04,09,36,5.40
2020,12,04,09,37,5.40
2020,12,04,09,38,5.40
2020,12,04,09,39,5.50
2020,12,04,09,40,5.60
2020,12,04,09,41,5.70
2020,12,04,09,42,5.80
2020,12,04,09,43,5.90
2020,12,04,09,44,5.90
2020,12,04,09,45,6.00
2020,12,04,09,46,6.00
2020,12,04,09,47,6.00
2020,12,04,09,48,6.00
2020,12,04,09,49,6.00
2020,12,04,09,50,5.90
2020,12,04,09,51,5.90
2020,12,04,09,52,5.90
2020,12,04,09,53,5.90
2020,12,04,09,54,5.90
2020,12,04,09,55,5.90
2020,12,04,09,56,5.90
2020,12,04,09,57,6.00
2020,12,04,09,58,6.00
2020,12,04,09,59,6.00
2020,12,04,10,00,6.10
2020,12,04,10,01,6.10
2020,12,04,10,02,6.20
2020,12,04,10,03,6.20
2020,12,04,10,04,6.30
2020,12,04,10,05,6.30
2020,12,04,10,06,6.30
2020,12,04,10,07,6.40
2020,12,04,10,08,6.40
2020,12,04,10,09,6.50
2020,12,04,10,10,6.60
2020,12,04,10,11,6.60
2020,12,04,10,12,6.70
2020,12,04,10,13,6.80
2020,12,04,10,14,6.80
2020,12,04,10,15,6.90
2020,12,04,10,16,7.00
2020,12,04,10,17,7.10
2020,12,04,10,18,7.10
2020,12,04,10,19,7.20
2020,12,04,10,20,7.20
2020,12,04,10,21,7.20
2020,12,04,10,22,7.30
2020,12,04,10,23,7.40
2020,12,04,10,24,7.40
2020,12,04,10,25,7.50
2020,12,04,10,26,7.60
2020,12,04,10,27,7.60
2020,12,04,10,28,7.70
2020,12,04,10,29,7.70
2020,12,04,10,30,7.80
2020,12,04,10,31,7.90
2020,12,04,10,32,7.90
2020,12,04,10,33,8.00
2020,12,04,10,34,8.10
2020,12,04,10,35,8.10
2020,12,04,10,36,8.20
2020,12,04,10,37,8.20
2020,12,04,10,38,8.30
2020,12,04,10,39,8.40
2020,12,04,10,40,8.40
2020,12,04,10,41,8.50
2020,12,04,10,42,8.60
2020,12,04,10,43,8.60
2020,12,04,10,44,8.60
2020,12,04,10,45,8.70
2020,12,04,10,46,8.70
2020,12,04,10,47,8.80
2020,12,04,10,48,8.80
2020,12,04,10,49,8.90
2020,12,04,10,50,8.90
2020,12,04,10,51,8.90
2020,12,04,10,52,9.00
2020,12,04,10,53,9.00
2020,12,04,10,54,9.10
2020,12,04,10,55,9.20
2020,12,04,10,56,9.20
2020,12,04,10,57,9.30
2020,12,04,10,58,9.30
2020,12,04,10,59,9.40
2020,12,04,11,00,9.50
2020,12,04,11,01,9.50
2020,12,04,11,02,9.60
2020,12,04,11,03,9.60
2020,12,04,11,04,9.70
2020,12,04,11,05,9.70
2020,12,04,11,06,9.80
2020,12,04,11,07,9.80
2020,12,04,11,08,9.90
2020,12,04,11,09,9.90
2020,12,04,11,10,9.90
2020,12,04,11,11,10.00
2020,12,04,11,12,10.00
2020,12,04,11,13,10.00
2020,12,04,11,14,10.00
2020,12,04,11,15,10.00
2020,12,04,11,16,9.90
2020,12,04,11,17,9.90
2020,12,04,11,18,9.90
2020,12,04,11,19,9.90
2020,12,04,11,20,9.90
2020,12,04,11,21,10.00
2020,12,04,11,22,10.00
2020,12,04,11,23,10.00
2020,12,04,11,24,10.00
2020,12,04,11,25,10.10
2020,12,04,11,26,10.10
2020,12,04,11,27,10.10
2020,12,04,11,28,10.10
2020,12,04,11,29,10.10
2020,12,04,11,30,10.10
2020,12,04,11,31,10.10
2020,12,04,11,32,10.10
2020,12,04,11,33,10.10
2020,12,04,11,34,10.20
2020,12,04,11,35,10.20
2020,12,04,11,36,10.20
2020,12,04,11,37,10.20
2020,12,04,11,38,10.30
2020,12,04,11,39,10.30
2020,12,04,11,40,10.30
2020,12,04,11,41,10.30
2020,12,04,11,42,10.30
2020,12,04,11,43,10.30
2020,12,04,11,44,10.40
2020,12,04,11,45,10.40
2020,12,04,11,46,10.40
2020,12,04,11,47,10.50
2020,12,04,11,48,10.50
2020,12,04,11,49,10.60
2020,12,04,11,50,10.60
2020,12,04,11,51,10.60
2020,12,04,11,52,10.70
2020,12,04,11,53,10.70
2020,12,04,11,54,10.70
2020,12,04,11,55,10.70
2020,12,04,11,56,10.80
2020,12,04,11,57,10.80
2020,12,04,11,58,10.80
2020,12,04,11,59,10.80
2020,12,04,12,00,10.80
2020,12,04,12,01,10.80
2020,12,04,12,02,10.80
2020,12,04,12,03,10.80
2020,12,04,12,04,10.80
2020,12,04,12,05,10.80
2020,12,04,12,06,10.80
2020,12,04,12,07,10.80
2020,12,04,12,08,10.80
2020,12,04,12,09,10.80
2020,12,04,12,10,10.80
2020,12,04,12,11,10.80
2020,12,04,12,12,10.80
2020,12,04,12,13,10.80
2020,12,04,12,14,10.80
2020,12,04,12,15,10.80
2020,12,04,12,16,10.90
2020,12,04,12,17,10.90
2020,12,04,12,18,10.90
2020,12,04,12,19,10.90
2020,12,04,12,20,10.90
2020,12,04,12,21,11.00
2020,12,04,12,22,11.00
2020,12,04,12,23,11.00
2020,12,04,12,24,11.00
2020,12,04,12,25,11.00
2020,12,04,12,26,11.10
2020,12,04,12,27,11.10
2020,12,04,12,28,11.10
2020,12,04,12,29,11.10
2020,12,04,12,30,11.20
2020,12,04,12,31,11.20
2020,12,04,12,32,11.30
2020,12,04,12,33,11.30
2020,12,04,12,34,11.30
2020,12,04,12,35,11.30
2020,12,04,12,36,11.30
2020,12,04,12,37,11.30
2020,12,04,12,38,11.30
2020,12,04,12,39,11.30
2020,12,04,12,40,11.40
2020,12,04,12,41,11.40
2020,12,04,12,42,11.40
2020,12,04,12,43,11.40
2020,12,04,12,44,11.40
2020,12,04,12,45,11.40
2020,12,04,12,46,11.50
2020,12,04,12,47,11.50
2020,12,04,12,48,11.60
2020,12,04,12,49,11.60
2020,12,04,12,50,11.70
2020,12,04,12,51,11.70
2020,12,04,12,52,11.70
2020,12,04,12,53,11.70
2020,12,04,12,54,11.70
2020,12,04,12,55,11.70
2020,12,04,12,56,11.70
2020,12,04,12,57,11.70
2020,12,04,12,58,11.80
2020,12,04,12,59,11.80
2020,12,04,13,00,11.80
2020,12,04,13,01,11.80
2020,12,04,13,02,11.80
2020,12,04,13,03,11.80
2020,12,04,13,04,11.80
2020,12,04,13,05,11.80
2020,12,04,13,06,11.80
2020,12,04,13,07,11.80
2020,12,04,13,08,11.80
2020,12,04,13,09,11.80
2020,12,04,13,10,11.80
2020,12,04,13,11,11.90
2020,12,04,13,12,11.90
2020,12,04,13,13,11.90
2020,12,04,13,14,11.90
2020,12,04,13,15,11.90
2020,12,04,13,16,11.90
2020,12,04,13,17,11.90
2020,12,04,13,18,11.90
2020,12,04,13,19,11.90
2020,12,04,13,20,11.90
2020,12,04,13,21,11.90
2020,12,04,13,22,11.90
2020,12,04,13,23,11.90
2020,12,04,13,24,11.90
2020,12,04,13,25,11.90
2020,12,04,13,26,11.90
2020,12,04,13,27,11.90
2020,12,04,13,28,11.90
2020,12,04,13,29,11.90
2020,12,04,13,30,11.90
2020,12,04,13,31,11.90
2020,12,04,13,32,11.90
2020,12,04,13,33,11.90
2020,12,04,13,34,12.00
2020,12,04,13,35,12.00
2020,12,04,13,36,12.00
2020,12,04,13,37,12.00
2020,12,04,13,38,12.00
2020,12,04,13,39,12.00
2020,12,04,13,40,12.00
2020,12,04,13,41,12.00
2020,12,04,13,42,11.90
2020,12,04,13,43,11.90
2020,12,04,13,44,11.90
2020,12,04,13,45,11.90
2020,12,04,13,46,11.90
2020,12,04,13,47,11.80
2020,12,04,13,48,11.80
2020,12,04,13,49,11.80
2020,12,04,13,50,11.80
2020,12,04,13,51,11.70
2020,12,04,13,52,11.70
2020,12,04,13,53,11.70
2020,12,04,13,54,11.70
2020,12,04,13,55,11.60
2020,12,04,13,56,11.60
2020,12,04,13,57,11.60
2020,12,04,13,58,11.60
2020,12,04,13,59,11.60
2020,12,04,14,00,11.60
2020,12,04,14,01,11.60
2020,12,04,14,02,11.60
2020,12,04,14,03,11.60
2020,12,04,14,04,11.60
2020,12,04,14,05,11.60
2020,12,04,14,06,11.70
2020,12,04,14,07,11.70
2020,12,04,14,08,11.70
2020,12,04,14,09,11.60
2020,12,04,14,10,11.60
2020,12,04,14,11,11.60
2020,12,04,14,12,11.60
2020,12,04,14,13,11.50
2020,12,04,14,14,11.50
2020,12,04,14,15,11.40
2020,12,04,14,16,11.40
2020,12,04,14,17,11.40
2020,12,04,14,18,11.40
2020,12,04,14,19,11.40
2020,12,04,14,20,11.30
2020,12,04,14,21,11.30
2020,12,04,14,22,11.30
2020,12,04,14,23,11.30
2020,12,04,14,24,11.30
2020,12,04,14,25,11.30
2020,12,04,14,26,11.20
2020,12,04,14,27,11.20
2020,12,04,14,28,11.20
2020,12,04,14,29,11.20
2020,12,04,14,30,11.20
2020,12,04,14,31,11.20
2020,12,04,14,32,11.20
2020,12,04,14,33,11.20
2020,12,04,14,34,11.20
2020,12,04,14,35,11.20
2020,12,04,14,36,11.20
2020,12,04,14,37,11.20
2020,12,04,14,38,11.20
2020,12,04,14,39,11.20
2020,12,04,14,40,11.20
2020,12,04,14,41,11.20
2020,12,04,14,42,11.10
2020,12,04,14,43,11.10
2020,12,04,14,44,11.10
2020,12,04,14,45,11.10
2020,12,04,14,46,11.10
2020,12,04,14,47,11.10
2020,12,04,14,48,11.10
2020,12,04,14,49,11.10
2020,12,04,14,50,11.10
2020,12,04,14,51,11.10
2020,12,04,14,52,11.10
2020,12,04,14,53,11.10
2020,12,04,14,54,11.10
2020,12,04,14,55,11.10
2020,12,04,14,56,11.10
2020,12,04,14,57,11.10
2020,12,04,14,58,11.10
2020,12,04,14,59,11.10
2020,12,04,15,00,11.00
2020,12,04,15,01,11.00
2020,12,04,15,02,11.00
2020,12,04,15,03,11.00
2020,12,04,15,04,11.00
2020,12,04,15,05,11.00
2020,12,04,15,06,11.00
2020,12,04,15,07,11.00
2020,12,04,15,08,11.00
2020,12,04,15,09,11.00
2020,12,04,15,10,11.00
2020,12,04,15,11,11.00
2020,12,04,15,12,11.00
2020,12,04,15,13,11.00
2020,12,04,15,14,11.00
2020,12,04,15,15,11.00
2020,12,04,15,16,11.00
2020,12,04,15,17,11.00
2020,12,04,15,18,11.00
2020,12,04,15,19,11.00
2020,12,04,15,20,10.90
2020,12,04,15,21,10.90
2020,12,04,15,22,10.90
2020,12,04,15,23,10.90
2020,12,04,15,24,10.90
2020,12,04,15,25,10.90
2020,12,04,15,26,10.90
2020,12,04,15,27,10.90
2020,12,04,15,28,10.90
2020,12,04,15,29,10.90
2020,12,04,15,30,10.80
2020,12,04,15,31,10.80
2020,12,04,15,32,10.80
2020,12,04,15,33,10.80
2020,12,04,15,34,10.80
2020,12,04,15,35,10.80
2020,12,04,15,36,10.80
2020,12,04,15,37,10.80
2020,12,04,15,38,10.70
2020,12,04,15,39,10.70
2020,12,04,15,40,10.70
2020,12,04,15,41,10.70
2020,12,04,15,42,10.70
2020,12,04,15,43,10.70
2020,12,04,15,44,10.70
2020,12,04,15,45,10.70
2020,12,04,15,46,10.70
2020,12,04,15,47,10.70
2020,12,04,15,48,10.70
2020,12,04,15,49,10.60
2020,12,04,15,50,10.60
2020,12,04,15,51,10.60
2020,12,04,15,52,10.60
2020,12,04,15,53,10.60
2020,12,04,15,54,10.50
2020,12,04,15,55,10.50
2020,12,04,15,56,10.50
2020,12,04,15,57,10.50
2020,12,04,15,58,10.40
2020,12,04,15,59,10.40
2020,12,04,16,00,10.40
2020,12,04,16,01,10.30
2020,12,04,16,02,10.30
2020,12,04,16,03,10.30
2020,12,04,16,04,10.20
2020,12,04,16,05,10.20
2020,12,04,16,06,10.20
2020,12,04,16,07,10.10
2020,12,04,16,08,10.10
2020,12,04,16,09,10.10
2020,12,04,16,10,10.00
2020,12,04,16,11,10.00
2020,12,04,16,12,9.90
2020,12,04,16,13,9.90
2020,12,04,16,14,9.90
2020,12,04,16,15,9.80
2020,12,04,16,16,9.80
2020,12,04,16,17,9.80
2020,12,04,16,18,9.80
2020,12,04,16,19,9.70
2020,12,04,16,20,9.70
2020,12,04,16,21,9.70
2020,12,04,16,22,9.60
2020,12,04,16,23,9.60
2020,12,04,16,24,9.60
2020,12,04,16,25,9.60
2020,12,04,16,26,9.50
2020,12,04,16,27,9.50
2020,12,04,16,28,9.40
2020,12,04,16,29,9.40
2020,12,04,16,30,9.40
2020,12,04,16,31,9.40
2020,12,04,16,32,9.30
2020,12,04,16,33,9.30
2020,12,04,16,34,9.30
2020,12,04,16,35,9.30
2020,12,04,16,36,9.30
2020,12,04,16,37,9.30
2020,12,04,16,38,9.30
2020,12,04,16,39,9.30
2020,12,04,16,40,9.20
2020,12,04,16,41,9.20
2020,12,04,16,42,9.20
2020,12,04,16,43,9.20
2020,12,04,16,44,9.20
2020,12,04,16,45,9.20
2020,12,04,16,46,9.10
2020,12,04,16,47,9.10
2020,12,04,16,48,9.10
2020,12,04,16,49,9.10
2020,12,04,16,50,9.10
2020,12,04,16,51,9.10
2020,12,04,16,52,9.00
2020,12,04,16,53,9.00
2020,12,04,16,54,9.00
2020,12,04,16,55,9.00
2020,12,04,16,56,9.00
2020,12,04,16,57,9.00
2020,12,04,16,58,8.90
2020,12,04,16,59,8.90
2020,12,04,17,00,8.90
2020,12,04,17,01,8.90
2020,12,04,17,02,8.90
2020,12,04,17,03,8.90
2020,12,04,17,04,8.80
2020,12,04,17,05,8.80
2020,12,04,17,06,8.80
2020,12,04,17,07,8.80
2020,12,04,17,08,8.80
2020,12,04,17,09,8.80
2020,12,04,17,10,8.80
2020,12,04,17,11,8.70
2020,12,04,17,12,8.70
2020,12,04,17,13,8.70
2020,12,04,17,14,8.70
2020,12,04,17,15,8.60
2020,12,04,17,16,8.60
2020,12,04,17,17,8.60
2020,12,04,17,18,8.60
2020,12,04,17,19,8.60
2020,12,04,17,20,8.50
2020,12,04,17,21,8.50
2020,12,04,17,22,8.50
2020,12,04,17,23,8.40
2020,12,04,17,24,8.40
2020,12,04,17,25,8.40
2020,12,04,17,26,8.30
2020,12,04,17,27,8.30
2020,12,04,17,28,8.20
2020,12,04,17,29,8.20
2020,12,04,17,30,8.10
2020,12,04,17,31,8.10
2020,12,04,17,32,8.00
2020,12,04,17,33,8.00
2020,12,04,17,34,7.90
2020,12,04,17,35,7.90
2020,12,04,17,36,7.90
2020,12,04,17,37,7.90
2020,12,04,17,38,7.90
2020,12,04,17,39,7.80
2020,12,04,17,40,7.80
2020,12,04,17,41,7.80
2020,12,04,17,42,7.80
2020,12,04,17,43,7.80
2020,12,04,17,44,7.80
2020,12,04,17,45,7.70
2020,12,04,17,46,7.70
2020,12,04,17,47,7.70
2020,12,04,17,48,7.70
2020,12,04,17,49,7.70
2020,12,04,17,50,7.70
2020,12,04,17,51,7.60
2020,12,04,17,52,7.60
2020,12,04,17,53,7.60